Weather History for Plant City, FL

Change the Weather History Date:

Friday, March 1, 2013

  Actual Average Record
Temperature  
Mean Temperature 57 °F -  
Max Temperature 66 °F 76 °F 89 °F (1945)
Min Temperature 48 °F 52 °F 29 °F (1935)
Degree Days  
Heating Degree Days 8    
Growing Degree Days 7 (Base 50)    
Moisture  
Dew Point 40 °F    
Average Humidity 56    
Maximum Humidity 87    
Minimum Humidity 34    
Precipitation  
Precipitation 0.00 in - - ()
Sea Level Pressure  
Sea Level Pressure 30.01 in    
Wind  
Wind Speed 5 mph (NW)    
Max Wind Speed 14 mph    
Max Gust Speed 20 mph    
Visibility 10 miles    
Events      
Averages and records for this station are not official NWS values.
T = Trace of Precipitation, MM = Missing Value Source: NWS Daily Summary

Daily Weather History Graph

Daily Weather History Graph

Search for Another Location

Airport:

Trip Planner

Search our weather history database for the weather conditions in past years. The results will help you decide how hot, cold, wet, or windy it might be!

Date:

Astronomy

Mar. 01, 2013 Rise Set
Actual Time 6:52 AM EST 6:29 PM EST
Civil Twilight 6:29 AM EST 6:52 PM EST
Nautical Twilight 6:02 AM EST 7:19 PM EST
Astronomical Twilight 5:35 AM EST 7:47 PM EST
Moon 10:33 PM EST (3/1) 9:03 AM EST (3/1)
Length of Visible Light 12h 23m
Length of Day
11h 36m
Waning Gibbous, 83% of the Moon is Illuminated
Mar 1
Waning Gibbous
Mar 4
Last Quarter
Mar 11
New
Mar 19
First Quarter
Mar 27
Full

Hourly Weather History & Observations

Time (EST) Temp. Dew Point Humidity Pressure Visibility Wind Dir Wind Speed Gust Speed Precip Events Conditions
12:15 AM 55.4 °F 48.2 °F 77% 29.98 in 10.0 mi WNW 3.5 mph - N/A   Clear
12:35 AM 55.4 °F 46.4 °F 72% 29.99 in 10.0 mi WNW 4.6 mph - N/A   Clear
12:55 AM 55.4 °F 46.4 °F 72% 29.98 in 10.0 mi Calm Calm - N/A   Scattered Clouds
1:15 AM 55.4 °F 46.4 °F 72% 29.99 in 10.0 mi WNW 3.5 mph - N/A   Scattered Clouds
1:35 AM 53.6 °F 46.4 °F 77% 29.98 in 10.0 mi NW 4.6 mph - N/A   Scattered Clouds
1:55 AM 53.6 °F 46.4 °F 77% 29.97 in 10.0 mi NW 4.6 mph - N/A   Scattered Clouds
2:15 AM 53.6 °F 46.4 °F 77% 29.97 in 10.0 mi Calm Calm - N/A   Clear
2:35 AM 53.6 °F 46.4 °F 77% 29.97 in 10.0 mi WNW 4.6 mph - N/A   Clear
3:15 AM 51.8 °F 46.4 °F 82% 29.96 in 10.0 mi WSW 3.5 mph - N/A   Clear
3:35 AM 51.8 °F 46.4 °F 82% 29.96 in 10.0 mi West 3.5 mph - N/A   Clear
3:55 AM 51.8 °F 46.4 °F 82% 29.95 in 10.0 mi West 4.6 mph - N/A   Clear
4:15 AM 51.8 °F 46.4 °F 82% 29.96 in 10.0 mi NNW 3.5 mph - N/A   Clear
4:35 AM 51.8 °F 46.4 °F 82% 29.96 in 10.0 mi Calm Calm - N/A   Clear
4:55 AM 50.0 °F 46.4 °F 87% 29.96 in 10.0 mi Calm Calm - N/A   Clear
5:15 AM 50.0 °F 44.6 °F 82% 29.97 in 10.0 mi Calm Calm - N/A   Clear
5:35 AM 50.0 °F 42.8 °F 76% 29.98 in 10.0 mi North 3.5 mph - N/A   Clear
5:55 AM 50.0 °F 41.0 °F 71% 29.99 in 10.0 mi Calm Calm - N/A   Clear
6:15 AM 50.0 °F 41.0 °F 71% 30.00 in 10.0 mi NNE 3.5 mph - N/A   Clear
6:35 AM 48.2 °F 39.2 °F 71% 30.00 in 10.0 mi Calm Calm - N/A   Clear
6:55 AM 48.2 °F 39.2 °F 71% 30.00 in 10.0 mi Calm Calm - N/A   Clear
7:15 AM 48.2 °F 39.2 °F 71% 30.01 in 10.0 mi Calm Calm - N/A   Clear
7:35 AM 50.0 °F 39.2 °F 66% 30.02 in 10.0 mi Calm Calm - N/A   Clear
7:55 AM 50.0 °F 41.0 °F 71% 30.02 in 10.0 mi Calm Calm - N/A   Clear
8:35 AM 53.6 °F 37.4 °F 54% 30.04 in 10.0 mi North 8.1 mph - N/A   Clear
9:15 AM 55.4 °F 33.8 °F 44% 30.04 in 10.0 mi NNE 8.1 mph - N/A   Clear
9:35 AM 55.4 °F 35.6 °F 47% 30.04 in 10.0 mi NNE 5.8 mph - N/A   Clear
10:15 AM 55.4 °F 35.6 °F 47% 30.05 in 10.0 mi NW 3.5 mph - N/A   Clear
10:35 AM 57.2 °F 35.6 °F 44% 30.04 in 10.0 mi NW 6.9 mph - N/A   Clear
10:55 AM 57.2 °F 33.8 °F 41% 30.05 in 10.0 mi WNW 9.2 mph - N/A   Scattered Clouds
11:15 AM 57.2 °F 33.8 °F 41% 30.05 in 10.0 mi NNW 6.9 mph - N/A   Scattered Clouds
11:35 AM 59.0 °F 33.8 °F 39% 30.04 in 10.0 mi NW 6.9 mph - N/A   Clear
11:55 AM 59.0 °F 33.8 °F 39% 30.04 in 10.0 mi WNW 8.1 mph - N/A   Clear
12:15 PM 59.0 °F 35.6 °F 42% 30.04 in 10.0 mi NW 8.1 mph - N/A   Clear
12:35 PM 59.0 °F 35.6 °F 42% 30.02 in 10.0 mi NNW 6.9 mph - N/A   Clear
12:55 PM 60.8 °F 35.6 °F 39% 30.01 in 10.0 mi NW 4.6 mph - N/A   Scattered Clouds
1:15 PM 59.0 °F 37.4 °F 45% 30.00 in 10.0 mi WNW 5.8 mph 17.3 mph N/A   Scattered Clouds
1:35 PM 60.8 °F 37.4 °F 42% 29.99 in 10.0 mi WNW 5.8 mph - N/A   Clear
1:55 PM 60.8 °F 39.2 °F 45% 29.98 in 10.0 mi NW 6.9 mph - N/A   Clear
2:15 PM 62.6 °F 39.2 °F 42% 29.97 in 10.0 mi West 6.9 mph - N/A   Clear
2:35 PM 64.4 °F 37.4 °F 37% 29.97 in 10.0 mi WNW 12.7 mph 18.4 mph N/A   Clear
2:55 PM 64.4 °F 37.4 °F 37% 29.97 in 10.0 mi WNW 10.4 mph 18.4 mph N/A   Clear
3:15 PM 66.2 °F 37.4 °F 35% 29.98 in 10.0 mi WNW 13.8 mph 18.4 mph N/A   Clear
3:35 PM 64.4 °F 35.6 °F 34% 29.98 in 10.0 mi NW 12.7 mph 17.3 mph N/A   Clear
3:55 PM 64.4 °F 37.4 °F 37% 29.98 in 10.0 mi WNW 9.2 mph 18.4 mph N/A   Clear
4:15 PM 62.6 °F 37.4 °F 39% 29.99 in 10.0 mi WNW 13.8 mph - N/A   Clear
4:35 PM 62.6 °F 37.4 °F 39% 29.98 in 10.0 mi WNW 8.1 mph - N/A   Clear
4:55 PM 62.6 °F 35.6 °F 37% 29.98 in 10.0 mi NW 10.4 mph 19.6 mph N/A   Clear
5:15 PM 59.0 °F 37.4 °F 45% 29.99 in 10.0 mi NW 10.4 mph 17.3 mph N/A   Clear
5:35 PM 59.0 °F 39.2 °F 48% 29.98 in 10.0 mi WNW 6.9 mph - N/A   Clear
6:15 PM 57.2 °F 37.4 °F 48% 30.00 in 10.0 mi WNW 8.1 mph - N/A   Clear
6:35 PM 57.2 °F 37.4 °F 48% 30.00 in 10.0 mi NW 9.2 mph - N/A   Clear
6:55 PM 57.2 °F 35.6 °F 44% 30.02 in 10.0 mi NW 8.1 mph 16.1 mph N/A   Scattered Clouds
7:15 PM 57.2 °F 35.6 °F 44% 30.03 in 10.0 mi WNW 9.2 mph - N/A   Mostly Cloudy
7:35 PM 57.2 °F 37.4 °F 48% 30.04 in 10.0 mi WNW 9.2 mph - N/A   Overcast
7:55 PM 55.4 °F 37.4 °F 51% 30.03 in 10.0 mi WNW 6.9 mph - N/A   Overcast
8:15 PM 55.4 °F 37.4 °F 51% 30.04 in 10.0 mi West 6.9 mph - N/A   Overcast
8:35 PM 55.4 °F 37.4 °F 51% 30.03 in 10.0 mi West 5.8 mph - N/A   Overcast
8:55 PM 55.4 °F 37.4 °F 51% 30.03 in 10.0 mi WNW 6.9 mph - N/A   Overcast
9:15 PM 55.4 °F 37.4 °F 51% 30.04 in 10.0 mi WNW 9.2 mph - N/A   Overcast
9:35 PM 55.4 °F 39.2 °F 54% 30.06 in 10.0 mi WNW 6.9 mph - N/A   Overcast
9:55 PM 55.4 °F 39.2 °F 54% 30.05 in 10.0 mi WNW 5.8 mph - N/A   Overcast
10:15 PM 55.4 °F 39.2 °F 54% 30.05 in 10.0 mi WNW 6.9 mph - N/A   Mostly Cloudy
10:35 PM 55.4 °F 39.2 °F 54% 30.04 in 10.0 mi WNW 5.8 mph - N/A   Scattered Clouds
10:55 PM 55.4 °F 39.2 °F 54% 30.05 in 10.0 mi WNW 4.6 mph - N/A   Clear
11:15 PM 55.4 °F 41.0 °F 58% 30.05 in 10.0 mi WNW 4.6 mph - N/A   Clear
11:35 PM 55.4 °F 39.2 °F 54% 30.05 in 10.0 mi WNW 4.6 mph - N/A   Clear
11:55 PM 55.4 °F 39.2 °F 54% 30.04 in 10.0 mi WNW 8.1 mph - N/A   Clear